OE3KJN-13 Weather Reports


Display with metric or nautical units.
time (UTC)temp
F
wind
direction
speed
MPH
gust
MPH
rain 1hr
in
rain 24hr
in
rain mn
in
humidity
%
barometer
mb
20260503035027 56 14 0.0 3.0 0.00 0.00 0.00 100
20260503034527 55 11 2.0 3.0 0.00 0.00 0.00 100
20260503034026 52 345 1.0 3.0 0.00 0.00 0.00 100
20260503033526 51 19 0.0 0.0 0.00 0.00 0.00 100
20260503033026 55 19 0.0 0.0 0.00 0.00 0.00 100
20260503032526 56 19 0.0 0.0 0.00 0.00 0.00 100
20260503032025 56 19 0.0 0.0 0.00 0.00 0.00 100
20260503031525 56 19 0.0 2.0 0.00 0.00 0.00 100
20260503031025 53 33 2.0 4.0 0.00 0.00 0.00 100
20260503030524 55 355 0.0 3.0 0.00 0.00 0.00 100
20260503030024 56 105 0.0 0.0 0.00 0.00 0.00 100
20260503025524 55 105 0.0 0.0 0.00 0.00 0.00 100
20260503025024 54 105 0.0 0.0 0.00 0.00 0.00 100
20260503024523 53 105 0.0 0.0 0.00 0.00 0.00 100
20260503024023 56 105 0.0 0.0 0.00 0.00 0.00 100
20260503023523 53 105 0.0 3.0 0.00 0.00 0.00 100
20260503023022 51 78 0.0 3.0 0.00 0.00 0.00 100
20260503022522 52 97 0.0 4.0 0.00 0.00 0.00 100
20260503022022 53 146 2.0 3.0 0.00 0.00 0.00 100
20260503021521 49 146 2.0 5.0 0.00 0.00 0.00 100
20260503021021 58 348 0.0 0.0 0.00 0.00 0.00 100
20260503020521 59 348 0.0 0.0 0.00 0.00 0.00 100
20260503020021 58 348 0.0 0.0 0.00 0.00 0.00 100
20260503015520 58 348 0.0 0.0 0.00 0.00 0.00 100
20260503015020 58 348 0.0 0.0 0.00 0.00 0.00 100
20260503014520 59 348 0.0 0.0 0.00 0.00 0.00 100
20260503014020 59 348 0.0 0.0 0.00 0.00 0.00 100
20260503013519 59 348 0.0 0.0 0.00 0.00 0.00 100
20260503013019 60 348 0.0 0.0 0.00 0.00 0.00 100
20260503012519 60 348 0.0 0.0 0.00 0.00 0.00 100
20260503012018 59 348 0.0 0.0 0.00 0.00 0.00 100
20260503011518 59 348 0.0 0.0 0.00 0.00 0.00 100
20260503011018 56 348 0.0 1.0 0.00 0.00 0.00 100
20260503010517 57 340 0.0 1.0 0.00 0.00 0.00 100
20260503010017 57 300 0.0 0.0 0.00 0.00 0.00 100
20260503005517 54 300 0.0 0.0 0.00 0.00 0.00 100
20260503005017 56 300 0.0 0.0 0.00 0.00 0.00 100
20260503004516 58 300 0.0 2.0 0.00 0.00 0.00 100
20260503004016 58 310 1.0 3.0 0.00 0.00 0.00 100
20260503003516 57 279 1.0 3.0 0.00 0.00 0.00 100
20260503003015 58 330 0.0 0.0 0.00 0.00 0.00 100
20260503002515 58 330 0.0 0.0 0.00 0.00 0.00 100
20260503002015 59 330 0.0 0.0 0.00 0.00 0.00 100
20260503001515 58 330 0.0 0.0 0.00 0.00 0.00 100
20260503001014 57 330 0.0 0.0 0.00 0.00 0.00 100
20260503000514 59 330 0.0 0.0 0.00 0.00 0.00 100
20260503000014 56 330 0.0 0.0 0.00 0.00 0.00 100
20260502235513 58 330 0.0 0.0 0.00 0.00 0.00 100
20260502235013 58 330 0.0 0.0 0.00 0.00 0.00 100
20260502234513 59 330 0.0 0.0 0.00 0.00 0.00 100
20260502234013 57 330 0.0 0.0 0.00 0.00 0.00 100
20260502233512 58 330 0.0 2.0 0.00 0.00 0.00 100
20260502233012 58 341 0.0 1.0 0.00 0.00 0.00 100
20260502232512 60 343 1.0 2.0 0.00 0.00 0.00 100
20260502232011 59 340 1.0 1.0 0.00 0.00 0.00 100
20260502231511 60 292 0.0 0.0 0.00 0.00 0.00 100
20260502231011 59 292 0.0 0.0 0.00 0.00 0.00 100
20260502230510 59 292 0.0 3.0 0.00 0.00 0.00 100
20260502230010 60 300 0.0 2.0 0.00 0.00 0.00 100
20260502225510 60 338 1.0 3.0 0.00 0.00 0.00 100
20260502225010 60 329 1.0 5.0 0.00 0.00 0.00 100
20260502224509 60 315 2.0 2.0 0.00 0.00 0.00 100
20260502224009 60 343 1.0 4.0 0.00 0.00 0.00 100
20260502223509 60 337 2.0 5.0 0.00 0.00 0.00 100
20260502223008 60 296 4.0 4.0 0.00 0.00 0.00 100
20260502222508 60 324 1.0 3.0 0.00 0.00 0.00 100
20260502222008 60 300 1.0 3.0 0.00 0.00 0.00 100
20260502221508 61 12 1.0 3.0 0.00 0.00 0.00 100
20260502221007 61 323 1.0 3.0 0.00 0.00 0.00 100
20260502220507 61 319 1.0 3.0 0.00 0.00 0.00 100
20260502220007 60 338 0.0 3.0 0.00 0.00 0.00 100
20260502215506 60 322 1.0 4.0 0.00 0.00 0.00 100
20260502215006 60 310 2.0 4.0 0.00 0.00 0.00 100
20260502214506 60 323 0.0 4.0 0.00 0.00 0.00 100
20260502214005 60 303 3.0 4.0 0.00 0.00 0.00 100
20260502213505 60 299 0.0 0.0 0.00 0.00 0.00 100
20260502213005 61 299 0.0 0.0 0.00 0.00 0.00 100
20260502212505 60 299 0.0 2.0 0.00 0.00 0.00 100
20260502212004 61 306 2.0 3.0 0.00 0.00 0.00 100
20260502211504 62 150 0.0 0.0 0.00 0.00 0.00 100
20260502211004 62 150 0.0 0.0 0.00 0.00 0.00 100
20260502210503 62 150 0.0 0.0 0.00 0.00 0.00 100
20260502210003 62 150 0.0 0.0 0.00 0.00 0.00 100
20260502205503 62 150 0.0 0.0 0.00 0.00 0.00 100
20260502205003 63 150 0.0 0.0 0.00 0.00 0.00 100
20260502204502 62 150 0.0 0.0 0.00 0.00 0.00 100
20260502204002 62 150 0.0 0.0 0.00 0.00 0.00 100
20260502203502 62 150 0.0 0.0 0.00 0.00 0.00 100
20260502203001 63 150 0.0 0.0 0.00 0.00 0.00 100
20260502202501 63 150 0.0 0.0 0.00 0.00 0.00 100
20260502202001 63 150 0.0 0.0 0.00 0.00 0.00 100
20260502201501 63 150 0.0 0.0 0.00 0.00 0.00 100
20260502201000 63 150 0.0 0.0 0.00 0.00 0.00 100
20260502200500 63 150 0.0 0.0 0.00 0.00 0.00 100
20260502200000 64 150 0.0 0.0 0.00 0.00 0.00 100
20260502195459 63 150 0.0 0.0 0.00 0.00 0.00 100
20260502194959 64 150 0.0 0.0 0.00 0.00 0.00 100
20260502194459 64 150 0.0 0.0 0.00 0.00 0.00 100
20260502193958 64 150 0.0 0.0 0.00 0.00 0.00 100
20260502193458 64 150 0.0 0.0 0.00 0.00 0.00 100
20260502192958 64 150 0.0 0.0 0.00 0.00 0.00 100
20260502192458 65 150 0.0 0.0 0.00 0.00 0.00 100
20260502191957 64 150 0.0 0.0 0.00 0.00 0.00 100
20260502191457 65 150 0.0 0.0 0.00 0.00 0.00 100
20260502190957 64 150 0.0 0.0 0.00 0.00 0.00 100
20260502190456 66 150 0.0 0.0 0.00 0.00 0.00 100
20260502185956 66 150 0.0 0.0 0.00 0.00 0.00 100
20260502185456 66 150 0.0 0.0 0.00 0.00 0.00 100
20260502184956 66 150 0.0 0.0 0.00 0.00 0.00 100
20260502184455 66 150 0.0 0.0 0.00 0.00 0.00 100
20260502183955 66 150 0.0 0.0 0.00 0.00 0.00 100
20260502183455 66 150 0.0 0.0 0.00 0.00 0.00 100
20260502182954 66 150 0.0 0.0 0.00 0.00 0.00 100
20260502182454 67 150 0.0 0.0 0.00 0.00 0.00 100
20260502181954 67 150 0.0 0.0 0.00 0.00 0.00 100
20260502181454 66 150 0.0 0.0 0.00 0.00 0.00 100
20260502180953 67 150 0.0 0.0 0.00 0.00 0.00 100
20260502180453 67 150 0.0 0.0 0.00 0.00 0.00 100
20260502170449 71 167 0.0 6.0 0.00 0.00 0.00 100
20260502163948 72 175 5.0 8.0 0.00 0.00 0.00 100
20260502163448 72 167 5.0 8.0 0.00 0.00 0.00 100
20260502162947 72 151 4.0 7.0 0.00 0.00 0.00 100
20260502162447 72 140 5.0 6.0 0.00 0.00 0.00 100
20260502161947 73 172 5.0 9.0 0.00 0.00 0.00 100
20260502161447 73 106 3.0 8.0 0.00 0.00 0.00 100
20260502160946 73 104 4.0 8.0 0.00 0.00 0.00 100
20260502160446 73 105 3.0 9.0 0.00 0.00 0.00 100
20260502151943 73 171 5.0 8.0 0.00 0.00 0.00 100
20260502151443 73 104 4.0 10.0 0.00 0.00 0.00 100
20260502150943 73 133 7.0 10.0 0.00 0.00 0.00 100
20260502150442 74 206 2.0 5.0 0.00 0.00 0.00 100
20260502130435 79 181 4.0 7.0 0.00 0.00 0.00 100
20260502123434 80 271 0.0 1.0 0.00 0.00 0.00 100
20260502122933 78 222 1.0 6.0 0.00 0.00 0.00 100
20260502122433 76 126 2.0 7.0 0.00 0.00 0.00 100
20260502121933 76 171 1.0 6.0 0.00 0.00 0.00 100
20260502121433 75 178 6.0 8.0 0.00 0.00 0.00 100
20260502120932 76 42 0.0 6.0 0.00 0.00 0.00 100
20260502120432 74 126 2.0 11.0 0.00 0.00 0.00 100
20260502115932 75 82 4.0 11.0 0.00 0.00 0.00 100
20260502115431 74 108 6.0 6.0 0.00 0.00 0.00 100
20260502114931 78 209 0.0 2.0 0.00 0.00 0.00 100
20260502114431 75 233 2.0 8.0 0.00 0.00 0.00 100
20260502113930 74 188 7.0 11.0 0.00 0.00 0.00 100
20260502113430 75 122 2.0 9.0 0.00 0.00 0.00 100
20260502112930 75 189 7.0 8.0 0.00 0.00 0.00 100
20260502112430 78 326 0.0 6.0 0.00 0.00 0.00 100
20260502111929 78 330 4.0 6.0 0.00 0.00 0.00 100
20260502111429 77 220 2.0 11.0 0.00 0.00 0.00 100
20260502110929 76 126 10.0 10.0 0.00 0.00 0.00 100
20260502110428 74 205 6.0 9.0 0.00 0.00 0.00 100
20260502105928 74 202 4.0 9.0 0.00 0.00 0.00 100
20260502105428 75 206 7.0 9.0 0.00 0.00 0.00 100
20260502104928 75 208 8.0 11.0 0.00 0.00 0.00 100
20260502104427 74 153 7.0 9.0 0.00 0.00 0.00 100
20260502103927 77 177 2.0 7.0 0.00 0.00 0.00 100
20260502103427 75 108 2.0 13.0 0.00 0.00 0.00 100
20260502102926 76 66 0.0 6.0 0.00 0.00 0.00 100
20260502102426 71 126 3.0 10.0 0.00 0.00 0.00 100
20260502101926 75 16 0.0 9.0 0.00 0.00 0.00 100
20260502101426 77 149 3.0 6.0 0.00 0.00 0.00 100
20260502100925 75 87 1.0 10.0 0.00 0.00 0.00 100
20260502100425 74 150 6.0 10.0 0.00 0.00 0.00 100
20260502091422 72 104 3.0 10.0 0.00 0.00 0.00 100
20260502090922 76 115 0.0 7.0 0.00 0.00 0.00 100
20260502090421 73 182 4.0 8.0 0.00 0.00 0.00 100
20260502071415 70 153 6.0 6.0 0.00 0.00 0.00 100
20260502070915 73 142 1.0 4.0 0.00 0.00 0.00 100
20260502070414 76 99 2.0 3.0 0.00 0.00 0.00 100
20260502065914 72 187 1.0 3.0 0.00 0.00 0.00 100
20260502065414 73 223 2.0 4.0 0.00 0.00 0.00 100
20260502064914 74 212 1.0 2.0 0.00 0.00 0.00 100
20260502064413 73 165 0.0 0.0 0.00 0.00 0.00 100
20260502063913 76 165 0.0 2.0 0.00 0.00 0.00 100
20260502063413 72 168 1.0 4.0 0.00 0.00 0.00 100
20260502062912 72 167 2.0 2.0 0.00 0.00 0.00 100
20260502062412 70 129 1.0 3.0 0.00 0.00 0.00 100
20260502061912 70 177 0.0 0.0 0.00 0.00 0.00 100
20260502061411 69 177 0.0 2.0 0.00 0.00 0.00 100
20260502060911 69 104 0.0 2.0 0.00 0.00 0.00 100
20260502060411 72 201 0.0 0.0 0.00 0.00 0.00 100
20260502055911 70 295 0.0 0.0 0.00 0.00 0.00 100
20260502055410 71 295 0.0 0.0 0.00 0.00 0.00 100
20260502054910 71 295 0.0 0.0 0.00 0.00 0.00 100
20260502054410 69 295 0.0 0.0 0.00 0.00 0.00 100
20260502053909 68 295 0.0 0.0 0.00 0.00 0.00 100
20260502053409 69 295 0.0 0.0 0.00 0.00 0.00 100
20260502052909 68 295 0.0 0.0 0.00 0.00 0.00 100
20260502052409 67 295 0.0 0.0 0.00 0.00 0.00 100
20260502051908 68 295 0.0 0.0 0.00 0.00 0.00 100
20260502051408 68 295 0.0 0.0 0.00 0.00 0.00 100
20260502050908 66 295 0.0 0.0 0.00 0.00 0.00 100
20260502050407 65 295 0.0 1.0 0.00 0.00 0.00 100
20260502045907 65 317 1.0 1.0 0.00 0.00 0.00 100
20260502045407 64 322 0.0 0.0 0.00 0.00 0.00 100
20260502044907 64 322 0.0 0.0 0.00 0.00 0.00 100
20260502044406 64 322 0.0 2.0 0.00 0.00 0.00 100
20260502043906 62 348 0.0 1.0 0.00 0.00 0.00 100
20260502043406 59 307 0.0 0.0 0.00 0.00 0.00 100
20260502042905 59 307 0.0 0.0 0.00 0.00 0.00 100
20260502042405 59 307 0.0 0.0 0.00 0.00 0.00 100
20260502041905 59 307 0.0 0.0 0.00 0.00 0.00 100
20260502041404 57 307 0.0 0.0 0.00 0.00 0.00 100
20260502040904 57 307 0.0 0.0 0.00 0.00 0.00 100
20260502040404 56 282 0.0 0.0 0.00 0.00 0.00 100
20260502035904 57 282 0.0 0.0 0.00 0.00 0.00 100
20260502035403 57 282 0.0 0.0 0.00 0.00 0.00 100